,,Stat1,,Stat2,,Stat3,,Stat4,,Wind1,,Wind1,
time,status,PR1M_SUM,status,RH1M_AVG,status,SR1M_AVG,status,TA1M_AVG,status,W1dAve1m,status,W1sAve1m,
2000-02-25, 00:01:00,VALID,0,VALID,82.0299,VALID,0,VALID,17.9885,VALID,232,VALID,1.22297,
2000-02-25, 00:02:00,VALID,0,VALID,80.874,VALID,0.0169808,VALID,18.0432,VALID,224,VALID,1.18089,
2000-02-25, 00:03:00,VALID,0,VALID,80.0043,VALID,0,VALID,18.1468,VALID,216,VALID,1.28766,
2000-02-25, 00:04:00,VALID,0,VALID,80.471,VALID,0,VALID,18.2505,VALID,215,VALID,0.651933,
2000-02-25, 00:05:00,VALID,0,VALID,81.403,VALID,0.0169808,VALID,18.2978,VALID,210,VALID,0.568793,
2000-02-25, 00:06:00,VALID,0,VALID,81.665,VALID,0,VALID,18.3147,VALID,216,VALID,0.697424,
2000-02-25, 00:07:00,VALID,0,VALID,80.7265,VALID,0,VALID,18.2918,VALID,234,VALID,0.719984,
2000-02-25, 00:08:00,VALID,0,VALID,81.3229,VALID,0.0169808,VALID,18.2891,VALID,215,VALID,0.49116,
2000-02-25, 00:09:00,VALID,0,VALID,82.6034,VALID,0,VALID,18.2791,VALID,208,VALID,0.402845,
2000-02-25, 00:10:00,VALID,0,VALID,84.4345,VALID,0.0169808,VALID,18.2342,VALID,190,VALID,0.516602,
2000-02-25, 00:11:00,VALID,0,VALID,84.1383,VALID,-0.0169808,VALID,18.1373,VALID,174,VALID,0.634291,
2000-02-25, 00:12:00,VALID,0,VALID,84.6189,VALID,0,VALID,18.0467,VALID,227,VALID,0.466964,
2000-02-25, 00:13:00,VALID,0,VALID,83.1108,VALID,0,VALID,17.9858,VALID,217,VALID,0.730369,
2000-02-25, 00:14:00,VALID,0,VALID,83.2494,VALID,-0.0169808,VALID,17.9853,VALID,170,VALID,0.789268,
2000-02-25, 00:15:00,VALID,0,VALID,85.757,VALID,-0.0169808,VALID,18.0116,VALID,150,VALID,0.726944,
2000-02-25, 00:16:01,VALID,0,VALID,84.4536,VALID,0,VALID,17.9597,VALID,168,VALID,0.599359,
2000-02-25, 00:17:00,VALID,0,VALID,85.9617,VALID,0,VALID,17.9145,VALID,225,VALID,0.49641,
2000-02-25, 00:18:00,VALID,0,VALID,82.9862,VALID,-0.0339617,VALID,17.8725,VALID,198,VALID,0.761133,
2000-02-25, 00:19:00,VALID,0,VALID,83.3537,VALID,-0.0169808,VALID,17.8783,VALID,190,VALID,0.663851,
2000-02-25, 00:20:00,VALID,0,VALID,82.9137,VALID,0,VALID,17.9014,VALID,187,VALID,0.617821,
2000-02-25, 00:21:00,VALID,0,VALID,83.7911,VALID,-0.0339617,VALID,17.9274,VALID,187,VALID,0.477148,
2000-02-25, 00:22:00,VALID,0,VALID,86.0546,VALID,-0.0169808,VALID,17.902,VALID,172,VALID,0.644631,
2000-02-25, 00:23:00,VALID,0,VALID,87.5118,VALID,-0.0679233,VALID,17.819,VALID,170,VALID,0.435697,
2000-02-25, 00:24:00,VALID,0,VALID,88.3117,VALID,-0.135847,VALID,17.7067,VALID,168,VALID,0.487277,
2000-02-25, 00:25:00,VALID,0,VALID,87.5017,VALID,-0.152827,VALID,17.6165,VALID,161,VALID,0.561719,
2000-02-25, 00:26:00,VALID,0,VALID,85.3081,VALID,-0.0849042,VALID,17.5579,VALID,166,VALID,0.403372,
2000-02-25, 00:27:00,VALID,0,VALID,85.4938,VALID,-0.101885,VALID,17.5542,VALID,189,VALID,0.203947,
2000-02-25, 00:28:00,VALID,0,VALID,84.2858,VALID,-0.118866,VALID,17.59,VALID,188,VALID,0.345465,
2000-02-25, 00:29:00,VALID,0,VALID,86.197,VALID,-0.135847,VALID,17.6386,VALID,188,VALID,0.1375,
2000-02-25, 00:30:00,VALID,0,VALID,87.1545,VALID,-0.101885,VALID,17.6543,VALID,195,VALID,0,
2000-02-25, 00:31:00,VALID,0,VALID,84.1243,VALID,-0.101885,VALID,17.6476,VALID,197,VALID,0,
2000-02-25, 00:32:00,VALID,0,VALID,85.2407,VALID,-0.101885,VALID,17.6675,VALID,197,VALID,0,
2000-02-25, 00:33:00,VALID,0,VALID,86.6535,VALID,-0.135847,VALID,17.6871,VALID,196,VALID,0,
2000-02-25, 00:34:00,VALID,0,VALID,86.74,VALID,-0.135847,VALID,17.655,VALID,180,VALID,0,
2000-02-25, 00:35:00,VALID,0,VALID,85.7074,VALID,-0.118866,VALID,17.5999,VALID,178,VALID,0,
2000-02-25, 00:36:00,VALID,0,VALID,85.7214,VALID,-0.101885,VALID,17.5611,VALID,174,VALID,0,
2000-02-25, 00:37:00,VALID,0,VALID,87.3402,VALID,-0.101885,VALID,17.5316,VALID,168,VALID,0,
2000-02-25, 00:38:01,VALID,0,VALID,86.5441,VALID,-0.0339617,VALID,17.4922,VALID,171,VALID,0,
2000-02-25, 00:39:00,VALID,0,VALID,87.5067,VALID,0,VALID,17.4823,VALID,194,VALID,0,
2000-02-25, 00:40:00,VALID,0,VALID,87.8831,VALID,0,VALID,17.4828,VALID,195,VALID,0,
2000-02-25, 00:41:00,VALID,0,VALID,85.1059,VALID,0,VALID,17.4731,VALID,198,VALID,0,
2000-02-25, 00:42:00,VALID,0,VALID,86.7959,VALID,0.0169808,VALID,17.4823,VALID,213,VALID,0.322985,
2000-02-25, 00:43:00,VALID,0,VALID,88.8534,VALID,-0.0169808,VALID,17.5116,VALID,223,VALID,0.623972,
2000-02-25, 00:44:00,VALID,0,VALID,86.9015,VALID,0,VALID,17.4918,VALID,226,VALID,0.330181,
2000-02-25, 00:45:00,VALID,0,VALID,86.7247,VALID,0,VALID,17.5312,VALID,215,VALID,0.252804,
2000-02-25, 00:46:00,VALID,0,VALID,87.4877,VALID,0,VALID,17.5441,VALID,208,VALID,0.39082,
2000-02-25, 00:47:00,VALID,0,VALID,84.3176,VALID,-0.0169808,VALID,17.5476,VALID,213,VALID,0.394426,
2000-02-25, 00:48:01,VALID,0,VALID,83.6741,VALID,-0.0169808,VALID,17.5988,VALID,203,VALID,0.265402,
2000-02-25, 00:49:01,VALID,0,VALID,85.5993,VALID,-0.0169808,VALID,17.6666,VALID,190,VALID,0.216747,
2000-02-25, 00:50:00,VALID,0,VALID,84.7092,VALID,-0.0169808,VALID,17.6986,VALID,190,VALID,0,
2000-02-25, 00:51:00,VALID,0,VALID,83.8941,VALID,-0.0169808,VALID,17.7217,VALID,190,VALID,0,
2000-02-25, 00:52:00,VALID,0,VALID,83.6016,VALID,0,VALID,17.7305,VALID,187,VALID,0,
2000-02-25, 00:53:00,VALID,0,VALID,85.214,VALID,-0.0169808,VALID,17.7507,VALID,186,VALID,0,
2000-02-25, 00:54:00,VALID,0,VALID,88.3346,VALID,-0.0339617,VALID,17.7081,VALID,153,VALID,0,
2000-02-25, 00:55:00,VALID,0,VALID,90.022,VALID,-0.0509425,VALID,17.6248,VALID,137,VALID,0,
2000-02-25, 00:56:00,VALID,0,VALID,89.1725,VALID,-0.0679233,VALID,17.5247,VALID,137,VALID,0,
2000-02-25, 00:57:00,VALID,0,VALID,88.8686,VALID,-0.0339617,VALID,17.4535,VALID,139,VALID,0,
2000-02-25, 00:58:00,VALID,0,VALID,85.9935,VALID,-0.0509425,VALID,17.412,VALID,157,VALID,0,
2000-02-25, 00:59:00,VALID,0,VALID,87.0032,VALID,-0.0509425,VALID,17.4313,VALID,162,VALID,0,
2000-02-25, 01:00:01,VALID,0,VALID,86.946,VALID,-0.0339617,VALID,17.4309,VALID,169,VALID,0,
2000-02-25, 01:01:00,VALID,0,VALID,86.8341,VALID,-0.0169808,VALID,17.4537,VALID,157,VALID,0,
2000-02-25, 01:02:00,VALID,0,VALID,90.2483,VALID,-0.0339617,VALID,17.4765,VALID,138,VALID,0,
2000-02-25, 01:03:00,VALID,0,VALID,90.3221,VALID,-0.0339617,VALID,17.4115,VALID,138,VALID,0,
2000-02-25, 01:04:00,VALID,0,VALID,89.0912,VALID,-0.0339617,VALID,17.3857,VALID,186,VALID,0,
2000-02-25, 01:05:00,VALID,0,VALID,90.0779,VALID,-0.0169808,VALID,17.3954,VALID,194,VALID,0,
2000-02-25, 01:06:00,VALID,0,VALID,89.4332,VALID,-0.0679233,VALID,17.3795,VALID,182,VALID,0,
2000-02-25, 01:07:00,VALID,0,VALID,86.0953,VALID,-0.0509425,VALID,17.3696,VALID,190,VALID,0,
2000-02-25, 01:08:00,VALID,0,VALID,84.9457,VALID,-0.0339617,VALID,17.4182,VALID,190,VALID,0,
2000-02-25, 01:09:00,VALID,0,VALID,84.2018,VALID,-0.0509425,VALID,17.5185,VALID,190,VALID,0,
2000-02-25, 01:10:00,VALID,0,VALID,84.0238,VALID,-0.0339617,VALID,17.6085,VALID,190,VALID,0,
2000-02-25, 01:11:01,VALID,0,VALID,80.9834,VALID,-0.0169808,VALID,17.6862,VALID,179,VALID,0,
2000-02-25, 01:12:00,VALID,0,VALID,79.7258,VALID,-0.0509425,VALID,17.9447,VALID,163,VALID,0.370988,
2000-02-25, 01:13:00,VALID,0,VALID,80.0132,VALID,-0.101885,VALID,18.2967,VALID,248,VALID,0.287059,
2000-02-25, 01:14:00,VALID,0,VALID,81.2606,VALID,-0.0169808,VALID,18.4353,VALID,241,VALID,0.00287829,
2000-02-25, 01:15:00,VALID,0,VALID,80.7164,VALID,-0.0509425,VALID,18.4837,VALID,241,VALID,0,
2000-02-25, 01:16:00,VALID,0,VALID,79.221,VALID,-0.0509425,VALID,18.487,VALID,238,VALID,0.0721154,
2000-02-25, 01:17:00,VALID,0,VALID,81.6955,VALID,-0.0679233,VALID,18.4934,VALID,165,VALID,0.314453,
2000-02-25, 01:18:00,VALID,0,VALID,81.2771,VALID,-0.0339617,VALID,18.4519,VALID,133,VALID,0.166735,
2000-02-25, 01:19:00,VALID,0,VALID,80.3985,VALID,-0.0509425,VALID,18.4065,VALID,133,VALID,0,
2000-02-25, 01:20:00,VALID,0,VALID,79.9776,VALID,-0.0339617,VALID,18.3965,VALID,136,VALID,0.057977,
2000-02-25, 01:21:01,VALID,0,VALID,80.6426,VALID,-0.0509425,VALID,18.3936,VALID,173,VALID,0,
2000-02-25, 01:22:01,VALID,0,VALID,79.3125,VALID,-0.0679233,VALID,18.3936,VALID,173,VALID,0,
2000-02-25, 01:23:00,VALID,0,VALID,78.8382,VALID,0.0169808,VALID,18.4378,VALID,173,VALID,0,
2000-02-25, 01:24:00,VALID,0,VALID,81.8468,VALID,0.0339617,VALID,18.4925,VALID,171,VALID,0,
2000-02-25, 01:25:00,VALID,0,VALID,82.9315,VALID,0.0339617,VALID,18.4431,VALID,169,VALID,0,
2000-02-25, 01:26:00,VALID,0,VALID,84.5337,VALID,0.0509425,VALID,18.3274,VALID,164,VALID,0.409334,
2000-02-25, 01:27:00,VALID,0,VALID,85.2128,VALID,0.0509425,VALID,18.153,VALID,148,VALID,0.330221,
2000-02-25, 01:28:00,VALID,0,VALID,82.6492,VALID,0.0339617,VALID,18.0208,VALID,149,VALID,0.300481,
2000-02-25, 01:29:00,VALID,0,VALID,82.9188,VALID,0.0169808,VALID,18.0042,VALID,147,VALID,0.389147,
2000-02-25, 01:30:00,VALID,0,VALID,82.6912,VALID,0.0849042,VALID,18.0202,VALID,144,VALID,0.408984,
2000-02-25, 01:31:00,VALID,0,VALID,83.2825,VALID,0.0679233,VALID,18.0012,VALID,145,VALID,0.404139,
2000-02-25, 01:32:00,VALID,0,VALID,84.6202,VALID,0.0509425,VALID,17.9786,VALID,151,VALID,0.384713,
2000-02-25, 01:33:01,VALID,0,VALID,86.9828,VALID,0.0509425,VALID,17.9304,VALID,153,VALID,0.303516,
2000-02-25, 01:34:00,VALID,0,VALID,84.6049,VALID,0.0509425,VALID,17.8269,VALID,150,VALID,0.399038,
2000-02-25, 01:35:00,VALID,0,VALID,83.0358,VALID,0.0679233,VALID,17.8137,VALID,142,VALID,0.301883,
2000-02-25, 01:36:00,VALID,0,VALID,83.1896,VALID,0.0679233,VALID,17.8882,VALID,142,VALID,0,
2000-02-25, 01:37:00,VALID,0,VALID,85.8549,VALID,0.0849042,VALID,17.9272,VALID,142,VALID,0,
2000-02-25, 01:38:00,VALID,0,VALID,86.3356,VALID,-0.0169808,VALID,17.8988,VALID,142,VALID,0,
2000-02-25, 01:39:00,VALID,0,VALID,87.1113,VALID,-0.0679233,VALID,17.828,VALID,142,VALID,0,
2000-02-25, 01:40:00,VALID,0,VALID,86.9409,VALID,-0.0679233,VALID,17.7639,VALID,142,VALID,0,
2000-02-25, 01:41:00,VALID,0,VALID,87.1825,VALID,-0.0849042,VALID,17.7251,VALID,142,VALID,0,
2000-02-25, 01:42:00,VALID,0,VALID,85.3437,VALID,-0.0169808,VALID,17.6991,VALID,142,VALID,0,
2000-02-25, 01:43:00,VALID,0,VALID,83.9323,VALID,-0.0339617,VALID,17.6961,VALID,142,VALID,0,
2000-02-25, 01:44:01,VALID,0,VALID,83.8382,VALID,-0.0849042,VALID,17.7152,VALID,142,VALID,0,
2000-02-25, 01:45:00,VALID,0,VALID,83.5597,VALID,-0.0679233,VALID,17.7639,VALID,142,VALID,0,
2000-02-25, 01:46:00,VALID,0,VALID,81.7985,VALID,-0.0679233,VALID,17.8089,VALID,142,VALID,0,
2000-02-25, 01:47:00,VALID,0,VALID,81.1805,VALID,-0.0509425,VALID,17.89,VALID,142,VALID,0,
2000-02-25, 01:48:00,VALID,0,VALID,82.2258,VALID,-0.0679233,VALID,17.9735,VALID,142,VALID,0,
2000-02-25, 01:49:00,VALID,0,VALID,83.1706,VALID,-0.0339617,VALID,18.0573,VALID,142,VALID,0,
2000-02-25, 01:50:00,VALID,0,VALID,80.5015,VALID,-0.0169808,VALID,18.1124,VALID,142,VALID,0,
2000-02-25, 01:51:00,VALID,0,VALID,81.5785,VALID,-0.0679233,VALID,18.1638,VALID,142,VALID,0,
2000-02-25, 01:52:00,VALID,0,VALID,79.2756,VALID,-0.0509425,VALID,18.2026,VALID,142,VALID,0,
2000-02-25, 01:53:01,VALID,0,VALID,78.1884,VALID,-0.0679233,VALID,18.287,VALID,142,VALID,0,
2000-02-25, 01:54:00,VALID,0,VALID,78.7683,VALID,-0.101885,VALID,18.3936,VALID,142,VALID,0,
2000-02-25, 01:55:01,VALID,0,VALID,80.476,VALID,-0.0679233,VALID,18.4708,VALID,174,VALID,0,
2000-02-25, 01:56:00,VALID,0,VALID,78.0638,VALID,-0.0509425,VALID,18.5165,VALID,200,VALID,0,
2000-02-25, 01:57:00,VALID,0,VALID,78.0231,VALID,-0.0849042,VALID,18.5585,VALID,200,VALID,0,
2000-02-25, 01:58:00,VALID,0,VALID,77.2513,VALID,-0.0339617,VALID,18.6002,VALID,200,VALID,0,
2000-02-25, 01:59:00,VALID,0,VALID,78.0485,VALID,-0.0509425,VALID,18.6551,VALID,200,VALID,0,
2000-02-25, 02:00:00,VALID,0,VALID,81.0597,VALID,-0.0509425,VALID,18.6489,VALID,200,VALID,0,
2000-02-25, 02:01:00,VALID,0,VALID,82.2232,VALID,-0.0339617,VALID,18.526,VALID,200,VALID,0,
2000-02-25, 02:02:00,VALID,0,VALID,79.0137,VALID,-0.101885,VALID,18.3906,VALID,200,VALID,0,
2000-02-25, 02:03:00,VALID,0,VALID,79.3011,VALID,-0.0679233,VALID,18.3679,VALID,200,VALID,0,
2000-02-25, 02:04:01,VALID,0,VALID,80.4633,VALID,-0.0679233,VALID,18.3516,VALID,200,VALID,0,
2000-02-25, 02:05:00,VALID,0,VALID,81.3941,VALID,-0.0849042,VALID,18.326,VALID,200,VALID,0,
2000-02-25, 02:06:01,VALID,0,VALID,79.9114,VALID,-0.101885,VALID,18.2838,VALID,200,VALID,0,
2000-02-25, 02:07:00,VALID,0,VALID,82.0528,VALID,-0.0679233,VALID,18.2612,VALID,200,VALID,0,
2000-02-25, 02:08:00,VALID,0,VALID,83.9335,VALID,-0.0169808,VALID,18.2286,VALID,200,VALID,0,
2000-02-25, 02:09:00,VALID,0,VALID,82.4826,VALID,-0.0339617,VALID,18.1447,VALID,160,VALID,0.155664,
2000-02-25, 02:10:00,VALID,0,VALID,79.9242,VALID,-0.0339617,VALID,18.1345,VALID,101,VALID,0.348157,
2000-02-25, 02:11:00,VALID,0,VALID,81.2746,VALID,-0.0509425,VALID,18.2323,VALID,101,VALID,0.440304,
2000-02-25, 02:12:00,VALID,0,VALID,82.3987,VALID,-0.101885,VALID,18.242,VALID,101,VALID,0.521429,
2000-02-25, 02:13:00,VALID,0,VALID,82.6937,VALID,-0.0849042,VALID,18.1839,VALID,103,VALID,0.563477,
2000-02-25, 02:14:00,VALID,0,VALID,82.2512,VALID,-0.0679233,VALID,18.1318,VALID,103,VALID,0.266447,
2000-02-25, 02:15:00,VALID,0,VALID,82.3987,VALID,-0.0509425,VALID,18.1255,VALID,103,VALID,0.0859375,
2000-02-25, 02:16:00,VALID,0,VALID,82.6696,VALID,-0.0679233,VALID,18.1357,VALID,103,VALID,0.166349,
2000-02-25, 02:17:00,VALID,0,VALID,81.2072,VALID,-0.0509425,VALID,18.1546,VALID,103,VALID,0.534375,
2000-02-25, 02:18:00,VALID,0,VALID,83.6881,VALID,-0.0679233,VALID,18.2194,VALID,111,VALID,0.280849,
2000-02-25, 02:19:00,VALID,0,VALID,81.4183,VALID,-0.0679233,VALID,18.1901,VALID,115,VALID,0.0321691,
2000-02-25, 02:20:00,VALID,0,VALID,80.9071,VALID,-0.0679233,VALID,18.1836,VALID,115,VALID,0.00246711,
2000-02-25, 02:21:00,VALID,0,VALID,82.1914,VALID,-0.0849042,VALID,18.2033,VALID,115,VALID,0,
2000-02-25, 02:22:00,VALID,0,VALID,81.7947,VALID,-0.0339617,VALID,18.2063,VALID,115,VALID,0,
2000-02-25, 02:23:00,VALID,0,VALID,80.1035,VALID,0,VALID,18.2413,VALID,115,VALID,0.139186,
2000-02-25, 02:24:00,VALID,0,VALID,79.9394,VALID,0.0509425,VALID,18.3343,VALID,115,VALID,0.0789696,
2000-02-25, 02:25:00,VALID,0,VALID,78.1426,VALID,0.0169808,VALID,18.4697,VALID,115,VALID,0,
2000-02-25, 02:26:00,VALID,0,VALID,79.5045,VALID,0.0339617,VALID,18.5926,VALID,115,VALID,0,
2000-02-25, 02:27:01,VALID,0,VALID,77.7078,VALID,0.0679233,VALID,18.6411,VALID,115,VALID,0,
2000-02-25, 02:28:00,VALID,0,VALID,77.573,VALID,0.0339617,VALID,18.6863,VALID,113,VALID,0,
2000-02-25, 02:29:00,VALID,0,VALID,75.5918,VALID,0,VALID,18.7538,VALID,107,VALID,0,
2000-02-25, 02:30:00,VALID,0,VALID,76.8265,VALID,0.0339617,VALID,18.8634,VALID,105,VALID,0,
2000-02-25, 02:31:00,VALID,0,VALID,76.9321,VALID,0.0169808,VALID,18.9151,VALID,105,VALID,0,
2000-02-25, 02:32:00,VALID,0,VALID,75.1773,VALID,0.0509425,VALID,18.9379,VALID,105,VALID,0,
2000-02-25, 02:33:00,VALID,0,VALID,76.0547,VALID,0.0169808,VALID,18.9444,VALID,105,VALID,0,
2000-02-25, 02:34:00,VALID,0,VALID,75.4977,VALID,0.0509425,VALID,18.9573,VALID,105,VALID,0,
2000-02-25, 02:35:00,VALID,0,VALID,79.75,VALID,0.0169808,VALID,18.9508,VALID,105,VALID,0,
2000-02-25, 02:36:00,VALID,0,VALID,80.4849,VALID,0.0509425,VALID,18.8212,VALID,110,VALID,0,
2000-02-25, 02:37:01,VALID,0,VALID,76.632,VALID,0.0169808,VALID,18.6989,VALID,112,VALID,0,
2000-02-25, 02:38:00,VALID,0,VALID,77.5615,VALID,0.0339617,VALID,18.6793,VALID,112,VALID,0,
2000-02-25, 02:39:00,VALID,0,VALID,77.9023,VALID,0.0169808,VALID,18.663,VALID,112,VALID,0,
2000-02-25, 02:40:00,VALID,0,VALID,82.1558,VALID,0.0169808,VALID,18.6535,VALID,112,VALID,0,
2000-02-25, 02:41:00,VALID,0,VALID,81.2263,VALID,0.0679233,VALID,18.5628,VALID,112,VALID,0,
2000-02-25, 02:42:00,VALID,0,VALID,79.9432,VALID,0.0169808,VALID,18.4856,VALID,112,VALID,0,
2000-02-25, 02:43:00,VALID,0,VALID,80.0679,VALID,0.0509425,VALID,18.4593,VALID,112,VALID,0,
2000-02-25, 02:44:00,VALID,0,VALID,79.3227,VALID,0,VALID,18.4341,VALID,112,VALID,0,
2000-02-25, 02:45:00,VALID,0,VALID,80.6197,VALID,0.0339617,VALID,18.4219,VALID,112,VALID,0,
2000-02-25, 02:46:00,VALID,0,VALID,80.7685,VALID,0.0169808,VALID,18.4113,VALID,112,VALID,0,
2000-02-25, 02:47:00,VALID,0,VALID,83.5495,VALID,0,VALID,18.3827,VALID,112,VALID,0,
2000-02-25, 02:48:01,VALID,0,VALID,83.6118,VALID,0.0339617,VALID,18.2369,VALID,112,VALID,0,
2000-02-25, 02:49:00,VALID,0,VALID,81.6268,VALID,0,VALID,18.1276,VALID,112,VALID,0,
2000-02-25, 02:50:00,VALID,0,VALID,80.5472,VALID,0.0509425,VALID,18.0889,VALID,112,VALID,0,
2000-02-25, 02:51:00,VALID,0,VALID,82.222,VALID,0.0509425,VALID,18.102,VALID,112,VALID,0,
2000-02-25, 02:52:00,VALID,0,VALID,82.4165,VALID,0.0509425,VALID,18.0723,VALID,112,VALID,0,
2000-02-25, 02:53:00,VALID,0,VALID,80.2408,VALID,-0.0339617,VALID,18.0667,VALID,112,VALID,0,
2000-02-25, 02:54:00,VALID,0,VALID,80.8308,VALID,-0.0339617,VALID,18.1092,VALID,112,VALID,0,
2000-02-25, 02:55:00,VALID,0,VALID,81.9676,VALID,-0.0339617,VALID,18.1285,VALID,112,VALID,0,
2000-02-25, 02:56:00,VALID,0,VALID,80.1251,VALID,-0.0169808,VALID,18.1318,VALID,112,VALID,0,
2000-02-25, 02:57:00,VALID,0,VALID,79.3964,VALID,-0.0339617,VALID,18.1643,VALID,112,VALID,0,
2000-02-25, 02:58:00,VALID,0,VALID,81.1487,VALID,-0.0679233,VALID,18.2349,VALID,112,VALID,0,
2000-02-25, 02:59:00,VALID,0,VALID,83.8674,VALID,-0.0679233,VALID,18.2805,VALID,117,VALID,0,
2000-02-25, 03:00:00,VALID,0,VALID,84.2324,VALID,-0.0169808,VALID,18.2185,VALID,125,VALID,0,
2000-02-25, 03:01:00,VALID,0,VALID,81.609,VALID,-0.0679233,VALID,18.18,VALID,126,VALID,0,
2000-02-25, 03:02:00,VALID,0,VALID,81.0317,VALID,-0.0339617,VALID,18.1996,VALID,131,VALID,0,
2000-02-25, 03:03:00,VALID,0,VALID,83.4134,VALID,-0.0339617,VALID,18.2319,VALID,131,VALID,0,
2000-02-25, 03:04:00,VALID,0,VALID,84.062,VALID,-0.0509425,VALID,18.2192,VALID,145,VALID,0,
2000-02-25, 03:05:00,VALID,0,VALID,82.8959,VALID,-0.0679233,VALID,18.1447,VALID,156,VALID,0,
2000-02-25, 03:06:00,VALID,0,VALID,83.6182,VALID,-0.0679233,VALID,18.1228,VALID,161,VALID,0,
2000-02-25, 03:07:00,VALID,0,VALID,85.8447,VALID,-0.0849042,VALID,18.0674,VALID,182,VALID,0,
2000-02-25, 03:08:00,VALID,0,VALID,85.4836,VALID,-0.0509425,VALID,17.9964,VALID,188,VALID,0,
2000-02-25, 03:09:00,VALID,0,VALID,83.9818,VALID,-0.0339617,VALID,17.9606,VALID,186,VALID,0,
2000-02-25, 03:10:00,VALID,0,VALID,86.1881,VALID,-0.0679233,VALID,17.9576,VALID,169,VALID,0,
2000-02-25, 03:11:00,VALID,0,VALID,84.9534,VALID,-0.0849042,VALID,17.8803,VALID,167,VALID,0,
2000-02-25, 03:12:00,VALID,0,VALID,83.9615,VALID,-0.0339617,VALID,17.8575,VALID,167,VALID,0,
2000-02-25, 03:13:00,VALID,0,VALID,83.9513,VALID,-0.0509425,VALID,17.8474,VALID,167,VALID,0,
2000-02-25, 03:14:00,VALID,0,VALID,84.1891,VALID,-0.0849042,VALID,17.8642,VALID,167,VALID,0,
2000-02-25, 03:15:00,VALID,0,VALID,83.477,VALID,-0.0169808,VALID,17.8737,VALID,167,VALID,0,
2000-02-25, 03:16:00,VALID,0,VALID,86.7183,VALID,-0.0509425,VALID,17.9189,VALID,146,VALID,0,
2000-02-25, 03:17:00,VALID,0,VALID,87.3618,VALID,-0.0339617,VALID,17.8541,VALID,141,VALID,0,
2000-02-25, 03:18:00,VALID,0,VALID,88.0281,VALID,-0.0169808,VALID,17.7574,VALID,123,VALID,0,
2000-02-25, 03:19:00,VALID,0,VALID,86.1627,VALID,-0.0509425,VALID,17.6507,VALID,102,VALID,0,
2000-02-25, 03:20:00,VALID,0,VALID,86.1169,VALID,-0.0169808,VALID,17.6864,VALID,103,VALID,0,
2000-02-25, 03:21:01,VALID,0,VALID,86.0304,VALID,-0.0339617,VALID,17.7374,VALID,103,VALID,0,
2000-02-25, 03:22:00,VALID,0,VALID,85.3183,VALID,-0.0169808,VALID,17.825,VALID,84,VALID,0.0616987,
2000-02-25, 03:23:00,VALID,0,VALID,84.1179,VALID,0.0169808,VALID,17.8951,VALID,101,VALID,0.198317,
2000-02-25, 03:24:00,VALID,0,VALID,83.8026,VALID,0.0679233,VALID,18.0204,VALID,109,VALID,0.428348,
2000-02-25, 03:25:00,VALID,0,VALID,84.0772,VALID,0.101885,VALID,18.153,VALID,123,VALID,0.350586,
2000-02-25, 03:26:00,VALID,0,VALID,82.9951,VALID,0.0679233,VALID,18.2046,VALID,119,VALID,0.42866,
2000-02-25, 03:27:00,VALID,0,VALID,83.3372,VALID,0.0509425,VALID,18.3052,VALID,112,VALID,0.601151,
2000-02-25, 03:28:00,VALID,0,VALID,83.5508,VALID,0.0679233,VALID,18.3336,VALID,112,VALID,0.565168,
2000-02-25, 03:29:00,VALID,0,VALID,82.5297,VALID,0.0849042,VALID,18.347,VALID,108,VALID,0.455859,
2000-02-25, 03:30:00,VALID,0,VALID,82.962,VALID,0.0849042,VALID,18.3885,VALID,108,VALID,0.20633,
2000-02-25, 03:31:00,VALID,0,VALID,82.2932,VALID,0.0679233,VALID,18.4304,VALID,108,VALID,0.209559,
2000-02-25, 03:32:00,VALID,0,VALID,83.2291,VALID,0.0849042,VALID,18.4955,VALID,108,VALID,0.44634,
2000-02-25, 03:33:01,VALID,0,VALID,84.8135,VALID,0.0509425,VALID,18.4565,VALID,105,VALID,0.446232,
2000-02-25, 03:34:00,VALID,0,VALID,84.6825,VALID,0.0509425,VALID,18.3437,VALID,94,VALID,0.658482,
2000-02-25, 03:35:00,VALID,0,VALID,83.8483,VALID,0.0679233,VALID,18.3119,VALID,93,VALID,0.673725,
2000-02-25, 03:36:00,VALID,0,VALID,85.5675,VALID,0.0849042,VALID,18.3117,VALID,93,VALID,0.635135,
2000-02-25, 03:37:00,VALID,0,VALID,86.6077,VALID,0.0339617,VALID,18.176,VALID,92,VALID,0.821114,
2000-02-25, 03:38:00,VALID,0,VALID,86.8124,VALID,0.0169808,VALID,18.0462,VALID,85,VALID,0.961965,
2000-02-25, 03:39:00,VALID,0,VALID,85.949,VALID,0.0339617,VALID,18.0307,VALID,85,VALID,1.01809,
2000-02-25, 03:40:00,VALID,0,VALID,85.7583,VALID,0.0849042,VALID,18.1145,VALID,85,VALID,1.08674,
2000-02-25, 03:41:00,VALID,0,VALID,85.3501,VALID,0.0679233,VALID,18.179,VALID,92,VALID,0.882422,
2000-02-25, 03:42:00,VALID,0,VALID,85.5968,VALID,0.0849042,VALID,18.2143,VALID,93,VALID,0.847245,
2000-02-25, 03:43:00,VALID,0,VALID,86.3865,VALID,0.0509425,VALID,18.2176,VALID,91,VALID,0.729646,
2000-02-25, 03:44:00,VALID,0,VALID,86.5454,VALID,0.0509425,VALID,18.1562,VALID,100,VALID,0.557566,
2000-02-25, 03:45:00,VALID,0,VALID,86.0736,VALID,0.0849042,VALID,18.1207,VALID,99,VALID,0.548277,
2000-02-25, 03:46:00,VALID,0,VALID,86.4767,VALID,0.0509425,VALID,18.1115,VALID,95,VALID,0.635547,
2000-02-25, 03:47:00,VALID,0,VALID,87.3414,VALID,0.0169808,VALID,18.0688,VALID,90,VALID,0.89527,
2000-02-25, 03:48:00,VALID,0,VALID,85.9681,VALID,0.0339617,VALID,18.0594,VALID,84,VALID,1.06808,
2000-02-25, 03:49:00,VALID,0,VALID,85.551,VALID,0.0339617,VALID,18.1299,VALID,86,VALID,0.958934,
2000-02-25, 03:50:00,VALID,0,VALID,84.7791,VALID,0.101885,VALID,18.1885,VALID,89,VALID,0.800576,
2000-02-25, 03:51:00,VALID,0,VALID,84.8491,VALID,0.0679233,VALID,18.2148,VALID,90,VALID,0.579268,
2000-02-25, 03:52:00,VALID,0,VALID,84.6342,VALID,0.101885,VALID,18.2305,VALID,89,VALID,0.899038,
2000-02-25, 03:53:00,VALID,0,VALID,83.9335,VALID,0.0169808,VALID,18.2367,VALID,89,VALID,1.37922,
2000-02-25, 03:54:00,VALID,0,VALID,84.24,VALID,-0.0169808,VALID,18.287,VALID,83,VALID,0.766797,
2000-02-25, 03:55:00,VALID,0,VALID,83.9857,VALID,0,VALID,18.2967,VALID,82,VALID,0.689823,
2000-02-25, 03:56:00,VALID,0,VALID,82.5577,VALID,-0.0169808,VALID,18.3963,VALID,87,VALID,1.36296,
2000-02-25, 03:57:00,VALID,0,VALID,82.9468,VALID,-0.0339617,VALID,18.5386,VALID,89,VALID,0.999219,
2000-02-25, 03:58:00,VALID,0,VALID,83.2888,VALID,0,VALID,18.5156,VALID,87,VALID,0.771434,
2000-02-25, 03:59:00,VALID,0,VALID,83.2291,VALID,-0.0339617,VALID,18.5031,VALID,83,VALID,0.79367,
2000-02-25, 04:00:00,VALID,0,VALID,82.99,VALID,-0.0169808,VALID,18.5063,VALID,84,VALID,0.539286,
2000-02-25, 04:01:00,VALID,0,VALID,84.1421,VALID,-0.0169808,VALID,18.5195,VALID,82,VALID,0.132422,
2000-02-25, 04:02:00,VALID,0,VALID,83.5635,VALID,-0.0169808,VALID,18.4837,VALID,82,VALID,0.0483141,
2000-02-25, 04:03:00,VALID,0,VALID,85.6426,VALID,-0.0169808,VALID,18.4741,VALID,82,VALID,0.152755,
2000-02-25, 04:04:00,VALID,0,VALID,84.5045,VALID,0,VALID,18.4316,VALID,80,VALID,0.262386,
2000-02-25, 04:05:00,VALID,0,VALID,84.1433,VALID,-0.0169808,VALID,18.4348,VALID,80,VALID,0.0472656,
2000-02-25, 04:06:00,VALID,0,VALID,84.9686,VALID,0,VALID,18.4418,VALID,112,VALID,0.28746,
2000-02-25, 04:07:00,VALID,0,VALID,85.4696,VALID,0,VALID,18.4157,VALID,120,VALID,0.296875,
2000-02-25, 04:08:00,VALID,0,VALID,84.8834,VALID,-0.0169808,VALID,18.3836,VALID,123,VALID,0.030222,
2000-02-25, 04:09:00,VALID,0,VALID,85.2166,VALID,-0.0169808,VALID,18.3603,VALID,123,VALID,0.0144761,